SKW5529 KDEN-KCRQ

Flight info

Callsign SKW5529
Flight time 2h 1m
Altitude 36000
Route COORZ7 VOAXA SAKES Q70 BLOBB LAKRR Q73 HAKMN GFS LVELL TRM ESCON
Aircraft E75L/M-SDE3GILORVW/S

Departure

Time 2026-05-09 18:33
Airport Denver International Airport (KDEN)

Arrival

Time 2026-05-09 20:34
Airport McClellan-Palomar Airport (KCRQ)
Time Latitude Longitude Altitude Speed Heading
2026-05-09 17:59 39.86258 -104.67477 5373 ft 0 kts
2026-05-09 18:20 39.86244 -104.67478 5371 ft 3 kts
2026-05-09 18:20 39.86224 -104.67480 5370 ft 3 kts
2026-05-09 18:20 39.86204 -104.67481 5370 ft 3 kts 359°
2026-05-09 18:21 39.86184 -104.67479 5371 ft 3 kts 349°
2026-05-09 18:21 39.86164 -104.67472 5372 ft 3 kts 338°
2026-05-09 18:21 39.86153 -104.67466 5373 ft 0 kts 334°
2026-05-09 18:23 39.86156 -104.67468 5373 ft 2 kts 328°
2026-05-09 18:23 39.86162 -104.67486 5372 ft 3 kts 269°
2026-05-09 18:24 39.86146 -104.67508 5371 ft 4 kts 189°
2026-05-09 18:24 39.86128 -104.67510 5370 ft 1 kts 184°
2026-05-09 18:24 39.86113 -104.67512 5372 ft 4 kts 185°
2026-05-09 18:25 39.86067 -104.67636 5374 ft 12 kts 270°
2026-05-09 18:25 39.86068 -104.67756 5373 ft 14 kts 270°
2026-05-09 18:25 39.86069 -104.67894 5372 ft 16 kts 269°
2026-05-09 18:25 39.86069 -104.68047 5370 ft 15 kts 271°
2026-05-09 18:26 39.86057 -104.68143 5368 ft 10 kts 240°
2026-05-09 18:26 39.86034 -104.68212 5365 ft 9 kts 262°
2026-05-09 18:26 39.86031 -104.68310 5366 ft 13 kts 269°
2026-05-09 18:26 39.85995 -104.68392 5364 ft 12 kts 195°
2026-05-09 18:27 39.85913 -104.68397 5366 ft 12 kts 181°
2026-05-09 18:27 39.85833 -104.68398 5368 ft 12 kts 181°
2026-05-09 18:27 39.85744 -104.68398 5370 ft 14 kts 180°
2026-05-09 18:27 39.85640 -104.68400 5371 ft 16 kts 180°
2026-05-09 18:28 39.85524 -104.68402 5373 ft 18 kts 180°
2026-05-09 18:28 39.85395 -104.68403 5374 ft 18 kts 181°
2026-05-09 18:28 39.85276 -104.68405 5376 ft 15 kts 181°
2026-05-09 18:28 39.85208 -104.68466 5375 ft 15 kts 263°
2026-05-09 18:29 39.85205 -104.68628 5368 ft 20 kts 267°
2026-05-09 18:29 39.85200 -104.68836 5360 ft 25 kts 268°
2026-05-09 18:29 39.85197 -104.69069 5350 ft 23 kts 270°
2026-05-09 18:29 39.85199 -104.69238 5343 ft 16 kts 273°
2026-05-09 18:30 39.85202 -104.69396 5337 ft 14 kts 271°
2026-05-09 18:30 39.85203 -104.69491 5334 ft 6 kts 270°
2026-05-09 18:30 39.85203 -104.69495 5334 ft 0 kts 270°
2026-05-09 18:31 39.85203 -104.69518 5331 ft 6 kts 271°
2026-05-09 18:31 39.85210 -104.69614 5331 ft 14 kts 294°
2026-05-09 18:31 39.85239 -104.69650 5331 ft 0 kts 339°
2026-05-09 18:32 39.85270 -104.69658 5333 ft 13 kts 357°
2026-05-09 18:32 39.85578 -104.69651 5340 ft 81 kts 359°
2026-05-09 18:32 39.86397 -104.69644 5332 ft 151 kts
2026-05-09 18:32 39.87583 -104.69673 5769 ft 182 kts
2026-05-09 18:33 39.88887 -104.69768 6602 ft 197 kts 349°
2026-05-09 18:33 39.90101 -104.70741 7394 ft 220 kts 309°
2026-05-09 18:33 39.90618 -104.72652 8377 ft 237 kts 272°
2026-05-09 18:33 39.90211 -104.74815 9361 ft 258 kts 251°
2026-05-09 18:34 39.89389 -104.77088 9851 ft 303 kts 244°
2026-05-09 18:34 39.88296 -104.79710 10022 ft 354 kts 244°
2026-05-09 18:34 39.87214 -104.82574 10181 ft 340 kts 246°
2026-05-09 18:34 39.86227 -104.85252 10223 ft 319 kts 246°
2026-05-09 18:35 39.85276 -104.87856 10815 ft 315 kts 248°
2026-05-09 18:35 39.84664 -104.90580 11578 ft 313 kts 261°
2026-05-09 18:35 39.84417 -104.93398 12420 ft 312 kts 271°
2026-05-09 18:35 39.84434 -104.96193 13251 ft 313 kts 273°
2026-05-09 18:36 39.84492 -104.99034 14100 ft 314 kts 274°
2026-05-09 18:36 39.84561 -105.01880 14874 ft 316 kts 274°
2026-05-09 18:36 39.84629 -105.04736 15641 ft 318 kts 274°
2026-05-09 18:36 39.84700 -105.07640 16400 ft 321 kts 274°
2026-05-09 18:37 39.84767 -105.10555 17160 ft 323 kts 274°
2026-05-09 18:37 39.84837 -105.13489 17917 ft 325 kts 274°
2026-05-09 18:37 39.84904 -105.16412 18653 ft 327 kts 275°
2026-05-09 18:37 39.84974 -105.19381 19314 ft 330 kts 274°
2026-05-09 18:38 39.85040 -105.22402 20015 ft 333 kts 274°
2026-05-09 18:38 39.85107 -105.25429 20724 ft 336 kts 274°
2026-05-09 18:38 39.85176 -105.28450 21384 ft 339 kts 274°
2026-05-09 18:40 39.85649 -105.50655 25389 ft 361 kts 273°
2026-05-09 18:40 39.85692 -105.53937 25919 ft 364 kts 272°
2026-05-09 18:40 39.85762 -105.57244 26475 ft 366 kts 273°
2026-05-09 18:41 39.85830 -105.60563 26975 ft 369 kts 273°
2026-05-09 18:41 39.85900 -105.63910 27498 ft 372 kts 273°
2026-05-09 18:41 39.85961 -105.67289 27995 ft 375 kts 272°
2026-05-09 18:41 39.85972 -105.70698 28474 ft 378 kts 271°
2026-05-09 18:42 39.85832 -105.74125 28949 ft 381 kts 266°
2026-05-09 18:42 39.85569 -105.77569 29421 ft 383 kts 266°
2026-05-09 18:42 39.85281 -105.80999 29877 ft 387 kts 265°
2026-05-09 18:42 39.84979 -105.84514 30106 ft 394 kts 265°
2026-05-09 18:43 39.84671 -105.88056 30603 ft 393 kts 265°
2026-05-09 18:43 39.84363 -105.91585 31136 ft 391 kts 265°
2026-05-09 18:43 39.84058 -105.95092 31596 ft 389 kts 265°
2026-05-09 18:43 39.83753 -105.98588 32083 ft 387 kts 265°
2026-05-09 18:44 39.83449 -106.02063 32541 ft 385 kts 265°
2026-05-09 18:44 39.83145 -106.05526 33008 ft 383 kts 265°
2026-05-09 18:44 39.82841 -106.08967 33457 ft 382 kts 265°
2026-05-09 18:44 39.82538 -106.12381 33915 ft 380 kts 265°
2026-05-09 18:45 39.82236 -106.15803 34240 ft 380 kts 265°
2026-05-09 18:45 39.81931 -106.19219 34580 ft 379 kts 265°
2026-05-09 18:45 39.81628 -106.22626 34873 ft 379 kts 265°
2026-05-09 18:45 39.81323 -106.26026 35160 ft 379 kts 265°
2026-05-09 18:46 39.81020 -106.29391 35457 ft 379 kts 265°
2026-05-09 18:46 39.80712 -106.32812 35728 ft 379 kts 265°
2026-05-09 18:46 39.80402 -106.36239 35856 ft 380 kts 265°
2026-05-09 18:47 39.79783 -106.43042 35965 ft 383 kts 265°
2026-05-09 18:47 39.79097 -106.49913 35953 ft 384 kts 262°
2026-05-09 18:48 39.77992 -106.56728 35985 ft 386 kts 257°
2026-05-09 18:48 39.76450 -106.63415 36018 ft 386 kts 256°
2026-05-09 18:49 39.74865 -106.70077 36054 ft 386 kts 256°
2026-05-09 18:49 39.73279 -106.76737 36093 ft 384 kts 256°
2026-05-09 18:50 39.71697 -106.83352 36141 ft 386 kts 256°
2026-05-09 18:50 39.70100 -106.90021 36144 ft 385 kts 256°
2026-05-09 18:51 39.68503 -106.96669 36134 ft 385 kts 256°
2026-05-09 18:51 39.66913 -107.03268 36145 ft 385 kts 256°
2026-05-09 18:52 39.65314 -107.09887 36086 ft 384 kts 256°
2026-05-09 18:52 39.63707 -107.16525 36061 ft 385 kts 256°
2026-05-09 18:53 39.62105 -107.23118 36016 ft 384 kts 256°
2026-05-09 18:53 39.60494 -107.29727 35989 ft 383 kts 256°
2026-05-09 18:54 39.58879 -107.36343 35993 ft 384 kts 256°
2026-05-09 18:54 39.57264 -107.42938 36013 ft 384 kts 256°
2026-05-09 18:55 39.55640 -107.49549 36039 ft 384 kts 256°
2026-05-09 18:55 39.54028 -107.56092 36082 ft 384 kts 255°
2026-05-09 18:56 39.52398 -107.62693 36107 ft 384 kts 255°
2026-05-09 18:56 39.50767 -107.69275 36099 ft 384 kts 255°
2026-05-09 18:57 39.49129 -107.75871 36102 ft 384 kts 255°
2026-05-09 18:57 39.47492 -107.82446 36100 ft 384 kts 255°
2026-05-09 18:58 39.45857 -107.88993 36072 ft 384 kts 255°
2026-05-09 18:58 39.44212 -107.95562 36045 ft 384 kts 255°
2026-05-09 18:59 39.42558 -108.02149 36015 ft 384 kts 255°
2026-05-09 18:59 39.40913 -108.08683 35983 ft 383 kts 255°
2026-05-09 19:00 39.39254 -108.15258 35935 ft 385 kts 255°
2026-05-09 19:00 39.36765 -108.25085 35947 ft 384 kts 255°
2026-05-09 19:01 39.35377 -108.30544 35964 ft 384 kts 255°
2026-05-09 19:01 39.33433 -108.38175 35965 ft 383 kts 255°
2026-05-09 19:02 39.31770 -108.44686 36014 ft 383 kts 255°
2026-05-09 19:02 39.30375 -108.50134 36016 ft 386 kts 255°
2026-05-09 19:03 39.28692 -108.56687 36021 ft 383 kts 255°
2026-05-09 19:03 39.27010 -108.63224 36010 ft 383 kts 255°
2026-05-09 19:04 39.25319 -108.69771 36005 ft 384 kts 255°
2026-05-09 19:04 39.23631 -108.76296 35990 ft 383 kts 255°
2026-05-09 19:05 39.21940 -108.82812 35955 ft 383 kts 255°
2026-05-09 19:05 39.20242 -108.89341 35936 ft 384 kts 255°
2026-05-09 19:06 39.18537 -108.95877 35882 ft 385 kts 255°
2026-05-09 19:06 39.16838 -109.02372 35898 ft 385 kts 255°
2026-05-09 19:07 39.15120 -109.08920 35894 ft 385 kts 255°
2026-05-09 19:07 39.13401 -109.15462 35889 ft 386 kts 255°
2026-05-09 19:08 39.11677 -109.22004 35894 ft 386 kts 254°
2026-05-09 19:08 39.09944 -109.28560 35892 ft 386 kts 255°
2026-05-09 19:09 39.08206 -109.35120 35891 ft 386 kts 254°
2026-05-09 19:09 39.06465 -109.41674 35902 ft 387 kts 254°
2026-05-09 19:10 39.04718 -109.48232 35896 ft 387 kts 254°
2026-05-09 19:10 39.02980 -109.54741 35931 ft 387 kts 254°
2026-05-09 19:11 39.01228 -109.61287 35962 ft 388 kts 254°
2026-05-09 19:11 38.99468 -109.67844 35971 ft 387 kts 254°
2026-05-09 19:12 38.97699 -109.74413 35997 ft 388 kts 254°
2026-05-09 19:12 38.95932 -109.80963 35990 ft 388 kts 254°
2026-05-09 19:13 38.94170 -109.87474 35996 ft 388 kts 254°
2026-05-09 19:13 38.92397 -109.94015 35991 ft 388 kts 254°
2026-05-09 19:14 38.90614 -110.00573 35965 ft 388 kts 254°
2026-05-09 19:14 38.88841 -110.07078 35952 ft 388 kts 254°
2026-05-09 19:15 38.87050 -110.13630 35922 ft 388 kts 254°
2026-05-09 19:15 38.85269 -110.20132 35907 ft 388 kts 254°
2026-05-09 19:16 38.83053 -110.26454 35908 ft 393 kts 245°
2026-05-09 19:16 38.80200 -110.32473 35905 ft 396 kts 239°
2026-05-09 19:17 38.76936 -110.38197 35913 ft 397 kts 238°
2026-05-09 19:17 38.73654 -110.43846 35907 ft 397 kts 238°
2026-05-09 19:18 38.70352 -110.49517 35941 ft 397 kts 238°
2026-05-09 19:18 38.67039 -110.55197 35963 ft 397 kts 238°
2026-05-09 19:19 38.63724 -110.60872 36002 ft 398 kts 238°
2026-05-09 19:19 38.60409 -110.66538 36019 ft 398 kts 238°
2026-05-09 19:20 38.57091 -110.72200 36045 ft 398 kts 238°
2026-05-09 19:20 38.53767 -110.77861 36052 ft 398 kts 238°
2026-05-09 19:21 38.50446 -110.83509 36064 ft 398 kts 238°
2026-05-09 19:21 38.47136 -110.89128 36042 ft 398 kts 238°
2026-05-09 19:22 38.43802 -110.94776 36025 ft 399 kts 238°
2026-05-09 19:22 38.40465 -111.00420 35996 ft 399 kts 238°
2026-05-09 19:23 38.37115 -111.06077 35978 ft 399 kts 238°
2026-05-09 19:23 38.33757 -111.11736 35961 ft 400 kts 238°
2026-05-09 19:24 38.30403 -111.17379 35946 ft 399 kts 238°
2026-05-09 19:24 38.27050 -111.23014 35964 ft 400 kts 238°
2026-05-09 19:25 38.23687 -111.28650 35954 ft 400 kts 238°
2026-05-09 19:25 38.20343 -111.34251 35980 ft 400 kts 238°
2026-05-09 19:26 38.16974 -111.39879 35977 ft 399 kts 238°
2026-05-09 19:26 38.13609 -111.45494 35982 ft 399 kts 238°
2026-05-09 19:27 38.10235 -111.51113 36002 ft 400 kts 238°
2026-05-09 19:27 38.06855 -111.56732 36000 ft 401 kts 238°
2026-05-09 19:28 38.03471 -111.62348 35986 ft 400 kts 238°
2026-05-09 19:28 38.00084 -111.67961 36003 ft 401 kts 238°
2026-05-09 19:29 37.96694 -111.73568 36002 ft 401 kts 238°
2026-05-09 19:29 37.93314 -111.79147 35971 ft 401 kts 238°
2026-05-09 19:30 37.89913 -111.84756 36039 ft 403 kts 238°
2026-05-09 19:30 37.86499 -111.90372 36118 ft 403 kts 238°
2026-05-09 19:31 37.83078 -111.95992 36151 ft 402 kts 238°
2026-05-09 19:31 37.79661 -112.01598 36227 ft 403 kts 238°
2026-05-09 19:32 37.76233 -112.07209 36267 ft 403 kts 238°
2026-05-09 19:32 37.72811 -112.12802 36271 ft 403 kts 238°
2026-05-09 19:33 37.69382 -112.18397 36265 ft 404 kts 238°
2026-05-09 19:33 37.65954 -112.23991 36269 ft 403 kts 239°
2026-05-09 19:34 37.62838 -112.29849 36205 ft 397 kts 246°
2026-05-09 19:34 37.60291 -112.35975 36156 ft 395 kts 249°
2026-05-09 19:35 37.57805 -112.42154 36092 ft 396 kts 249°
2026-05-09 19:35 37.55300 -112.48374 36043 ft 396 kts 249°
2026-05-09 19:36 37.52811 -112.54541 35986 ft 397 kts 249°
2026-05-09 19:36 37.50304 -112.60738 35974 ft 397 kts 249°
2026-05-09 19:37 37.47795 -112.66928 35997 ft 397 kts 249°
2026-05-09 19:37 37.45278 -112.73122 35997 ft 397 kts 249°
2026-05-09 19:38 37.42759 -112.79315 35992 ft 397 kts 249°
2026-05-09 19:38 37.40235 -112.85498 35976 ft 396 kts 249°
2026-05-09 19:39 37.37712 -112.91678 35977 ft 397 kts 249°
2026-05-09 19:39 37.35202 -112.97809 35967 ft 397 kts 249°
2026-05-09 19:40 37.32667 -113.03988 35948 ft 397 kts 249°
2026-05-09 19:40 37.29807 -113.09964 35958 ft 409 kts 237°
2026-05-09 19:41 37.25769 -113.15119 35969 ft 418 kts 228°
2026-05-09 19:41 37.21236 -113.19702 35971 ft 421 kts 226°
2026-05-09 19:42 37.16626 -113.24240 35955 ft 422 kts 226°
2026-05-09 19:42 37.12005 -113.28779 35964 ft 422 kts 226°
2026-05-09 19:43 37.07385 -113.33310 35976 ft 422 kts 226°
2026-05-09 19:43 37.02754 -113.37847 35997 ft 423 kts 226°
2026-05-09 19:44 36.98120 -113.42377 36006 ft 423 kts 226°
2026-05-09 19:44 36.93475 -113.46912 35995 ft 423 kts 226°
2026-05-09 19:45 36.88825 -113.51445 35977 ft 424 kts 226°
2026-05-09 19:45 36.84171 -113.55974 35959 ft 425 kts 226°
2026-05-09 19:46 36.79502 -113.60511 35923 ft 426 kts 226°
2026-05-09 19:46 36.74848 -113.65028 35912 ft 427 kts 226°
2026-05-09 19:47 36.70160 -113.69568 35880 ft 427 kts 226°
2026-05-09 19:47 36.65466 -113.74107 35888 ft 427 kts 226°
2026-05-09 19:48 36.60759 -113.78652 35875 ft 428 kts 225°
2026-05-09 19:48 36.56846 -113.82423 35872 ft 428 kts 226°
2026-05-09 19:49 36.52135 -113.86960 35873 ft 428 kts 225°
2026-05-09 19:49 36.46649 -113.92233 35853 ft 429 kts 225°
2026-05-09 19:50 36.42691 -113.96031 35842 ft 428 kts 225°
2026-05-09 19:50 36.37956 -114.00568 35850 ft 430 kts 225°
2026-05-09 19:51 36.33255 -114.05065 35833 ft 430 kts 225°
2026-05-09 19:51 36.28489 -114.09618 35840 ft 430 kts 225°
2026-05-09 19:52 36.23771 -114.14118 35819 ft 431 kts 225°
2026-05-09 19:52 36.19011 -114.18650 35816 ft 431 kts 225°
2026-05-09 19:53 36.14259 -114.23168 35814 ft 432 kts 225°
2026-05-09 19:53 36.09572 -114.27808 35807 ft 429 kts 229°
2026-05-09 19:54 36.05391 -114.32995 35798 ft 423 kts 235°
2026-05-09 19:54 36.01496 -114.38364 35807 ft 423 kts 236°
2026-05-09 19:55 35.97567 -114.43805 35799 ft 423 kts 236°
2026-05-09 19:56 35.91696 -114.51920 35829 ft 424 kts 236°
2026-05-09 19:56 35.87744 -114.57369 35852 ft 424 kts 236°
2026-05-09 19:57 35.83822 -114.62769 35877 ft 425 kts 236°
2026-05-09 19:57 35.79877 -114.68191 35888 ft 425 kts 236°
2026-05-09 19:58 35.75924 -114.73613 35892 ft 425 kts 236°
2026-05-09 19:58 35.71982 -114.79013 35906 ft 426 kts 235°
2026-05-09 19:59 35.68009 -114.84435 35896 ft 427 kts 235°
2026-05-09 19:59 35.64046 -114.89870 35889 ft 427 kts 235°
2026-05-09 20:00 35.60074 -114.95304 35888 ft 427 kts 235°
2026-05-09 20:00 35.56097 -115.00734 35889 ft 427 kts 235°
2026-05-09 20:01 35.52013 -115.06018 35905 ft 435 kts 227°
2026-05-09 20:01 35.46720 -115.09847 35904 ft 451 kts 206°
2026-05-09 20:02 35.40506 -115.11530 35914 ft 462 kts 192°
2026-05-09 20:02 35.34102 -115.12408 35892 ft 461 kts 192°
2026-05-09 20:03 35.24725 -115.14668 35886 ft 458 kts 197°
2026-05-09 20:03 35.18486 -115.16268 35890 ft 457 kts 197°
2026-05-09 20:04 35.12369 -115.18122 35880 ft 453 kts 204°
2026-05-09 20:04 35.06467 -115.20842 35889 ft 450 kts 207°
2026-05-09 20:05 35.00674 -115.23624 35874 ft 449 kts 207°
2026-05-09 20:05 34.94851 -115.26421 35883 ft 449 kts 207°
2026-05-09 20:06 34.89032 -115.29210 35867 ft 449 kts 207°
2026-05-09 20:06 34.83213 -115.31995 35876 ft 450 kts 207°
2026-05-09 20:07 34.77390 -115.34776 35860 ft 449 kts 207°
2026-05-09 20:07 34.71581 -115.37547 35854 ft 448 kts 207°
2026-05-09 20:08 34.62895 -115.41683 35858 ft 449 kts 206°
2026-05-09 20:09 34.57087 -115.44442 35845 ft 448 kts 206°
2026-05-09 20:09 34.51280 -115.47197 35843 ft 448 kts 206°
2026-05-09 20:10 34.45468 -115.49951 35845 ft 448 kts 206°
2026-05-09 20:10 34.39653 -115.52701 35843 ft 448 kts 206°
2026-05-09 20:11 34.33836 -115.55450 35293 ft 450 kts 206°
2026-05-09 20:11 34.30921 -115.56824 34859 ft 449 kts 206°
2026-05-09 20:11 34.28048 -115.58179 34433 ft 449 kts 206°
2026-05-09 20:11 34.25125 -115.59557 33947 ft 451 kts 206°
2026-05-09 20:12 34.22298 -115.61175 33356 ft 448 kts 213°
2026-05-09 20:12 34.19619 -115.63073 32744 ft 446 kts 217°
2026-05-09 20:12 34.17107 -115.65247 32171 ft 444 kts 221°
2026-05-09 20:12 34.14638 -115.67524 31608 ft 445 kts 222°
2026-05-09 20:13 34.12208 -115.69809 31077 ft 446 kts 222°
2026-05-09 20:13 34.09757 -115.72118 30526 ft 447 kts 222°
2026-05-09 20:13 34.07290 -115.74442 29990 ft 448 kts 222°
2026-05-09 20:13 34.04842 -115.76745 29356 ft 449 kts 222°
2026-05-09 20:14 34.02382 -115.79058 28734 ft 446 kts 221°
2026-05-09 20:14 33.99938 -115.81354 28122 ft 441 kts 221°
2026-05-09 20:14 33.97563 -115.83584 27524 ft 436 kts 221°
2026-05-09 20:14 33.95165 -115.85832 26949 ft 432 kts 221°
2026-05-09 20:15 33.92798 -115.88052 26386 ft 428 kts 221°
2026-05-09 20:15 33.90480 -115.90223 25876 ft 425 kts 221°
2026-05-09 20:15 33.88141 -115.92412 25364 ft 422 kts 221°
2026-05-09 20:15 33.85853 -115.94553 24885 ft 420 kts 221°
2026-05-09 20:16 33.83547 -115.96707 24405 ft 416 kts 220°
2026-05-09 20:16 33.81267 -115.98836 23935 ft 413 kts 220°
2026-05-09 20:16 33.79023 -116.00929 23482 ft 410 kts 220°
2026-05-09 20:16 33.76775 -116.03028 22951 ft 407 kts 220°
2026-05-09 20:17 33.74543 -116.05107 22415 ft 404 kts 220°
2026-05-09 20:17 33.72335 -116.07163 21905 ft 401 kts 220°
2026-05-09 20:17 33.70133 -116.09214 21398 ft 397 kts 220°
2026-05-09 20:17 33.67960 -116.11234 20911 ft 394 kts 220°
2026-05-09 20:18 33.65798 -116.13241 20443 ft 392 kts 219°
2026-05-09 20:18 33.63585 -116.15136 19966 ft 390 kts 216°
2026-05-09 20:18 33.61339 -116.16949 19517 ft 387 kts 215°
2026-05-09 20:18 33.59097 -116.18722 19070 ft 385 kts 215°
2026-05-09 20:19 33.56866 -116.20470 18640 ft 382 kts 215°
2026-05-09 20:19 33.54661 -116.22193 18225 ft 380 kts 214°
2026-05-09 20:19 33.52449 -116.23915 17746 ft 377 kts 214°
2026-05-09 20:19 33.50260 -116.25618 17257 ft 374 kts 214°
2026-05-09 20:20 33.48083 -116.27310 16796 ft 371 kts 214°
2026-05-09 20:20 33.45922 -116.28988 16358 ft 368 kts 214°
2026-05-09 20:20 33.43774 -116.30656 15921 ft 366 kts 214°
2026-05-09 20:20 33.41672 -116.32285 15513 ft 355 kts 214°
2026-05-09 20:21 33.39630 -116.33888 15131 ft 346 kts 215°
2026-05-09 20:21 33.37654 -116.35487 14745 ft 340 kts 217°
2026-05-09 20:21 33.35736 -116.37105 14394 ft 340 kts 218°
2026-05-09 20:21 33.33835 -116.38787 14022 ft 339 kts 219°
2026-05-09 20:22 33.31973 -116.40515 13647 ft 336 kts 220°
2026-05-09 20:22 33.30195 -116.42251 13235 ft 332 kts 221°
2026-05-09 20:22 33.28439 -116.44054 12893 ft 330 kts 223°
2026-05-09 20:22 33.26767 -116.45868 12516 ft 311 kts 224°
2026-05-09 20:23 33.25225 -116.47620 12159 ft 304 kts 226°
2026-05-09 20:23 33.23760 -116.49384 11853 ft 301 kts 227°
2026-05-09 20:23 33.22330 -116.51203 11522 ft 299 kts 229°
2026-05-09 20:23 33.20946 -116.53066 11212 ft 298 kts 230°
2026-05-09 20:24 33.19616 -116.54969 10910 ft 297 kts 232°
2026-05-09 20:24 33.18466 -116.56956 10622 ft 290 kts 242°
2026-05-09 20:24 33.17635 -116.59127 10316 ft 284 kts 249°
2026-05-09 20:24 33.16986 -116.61347 10044 ft 280 kts 253°
2026-05-09 20:25 33.16472 -116.63577 9765 ft 279 kts 257°
2026-05-09 20:25 33.16069 -116.65839 9468 ft 275 kts 259°
2026-05-09 20:25 33.15764 -116.68040 9253 ft 269 kts 262°
2026-05-09 20:25 33.15533 -116.70198 9049 ft 250 kts 263°
2026-05-09 20:26 33.15357 -116.72218 8970 ft 242 kts 264°
2026-05-09 20:26 33.15209 -116.74214 8975 ft 241 kts 265°
2026-05-09 20:26 33.15080 -116.76200 8940 ft 243 kts 266°
2026-05-09 20:26 33.14968 -116.78220 8736 ft 243 kts 266°
2026-05-09 20:27 33.14909 -116.80225 8496 ft 241 kts 270°
2026-05-09 20:27 33.14961 -116.82224 8284 ft 240 kts 272°
2026-05-09 20:27 33.15035 -116.84219 7978 ft 241 kts 272°
2026-05-09 20:27 33.15111 -116.86208 7677 ft 238 kts 272°
2026-05-09 20:28 33.15187 -116.88174 7382 ft 236 kts 272°
2026-05-09 20:28 33.15260 -116.90122 7092 ft 235 kts 272°
2026-05-09 20:28 33.15331 -116.92077 6829 ft 234 kts 272°
2026-05-09 20:29 33.15470 -116.95935 6289 ft 228 kts 271°
2026-05-09 20:29 33.15536 -116.97793 6013 ft 222 kts 272°
2026-05-09 20:29 33.15602 -116.99591 5776 ft 218 kts 272°
2026-05-09 20:29 33.15672 -117.01399 5544 ft 218 kts 272°
2026-05-09 20:30 33.15738 -117.03203 5305 ft 218 kts 272°
2026-05-09 20:30 33.15916 -117.04997 5034 ft 218 kts 283°
2026-05-09 20:30 33.16215 -117.06748 4790 ft 211 kts 274°
2026-05-09 20:30 33.16086 -117.08456 4527 ft 205 kts 256°
2026-05-09 20:31 33.15708 -117.10085 4252 ft 202 kts 255°
2026-05-09 20:31 33.15424 -117.11719 3980 ft 200 kts 259°
2026-05-09 20:31 33.15184 -117.13331 3709 ft 194 kts 258°
2026-05-09 20:31 33.14923 -117.14903 3427 ft 191 kts 258°
2026-05-09 20:32 33.14679 -117.16429 3165 ft 180 kts 258°
2026-05-09 20:32 33.14457 -117.17831 2876 ft 168 kts 257°
2026-05-09 20:32 33.14241 -117.19174 2599 ft 160 kts 257°
2026-05-09 20:32 33.14041 -117.20435 2276 ft 154 kts 257°
2026-05-09 20:33 33.13845 -117.21651 2003 ft 142 kts 257°
2026-05-09 20:33 33.13662 -117.22777 1712 ft 136 kts 258°
2026-05-09 20:33 33.13479 -117.23877 1339 ft 135 kts 257°
2026-05-09 20:33 33.13310 -117.24953 1028 ft 128 kts 259°
2026-05-09 20:34 33.13144 -117.25986 685 ft 126 kts 258°
2026-05-09 20:34 33.12984 -117.26995 413 ft 122 kts 260°
2026-05-09 20:34 33.12840 -117.27936 335 ft 101 kts 258°
2026-05-09 20:34 33.12768 -117.28379 336 ft 23 kts 259°
2026-05-09 20:35 33.12736 -117.28576 336 ft 26 kts 259°
2026-05-09 20:35 33.12704 -117.28758 336 ft 12 kts 253°
2026-05-09 20:35 33.12660 -117.28774 335 ft 7 kts 151°
2026-05-09 20:35 33.12633 -117.28710 336 ft 7 kts 88°
2026-05-09 20:36 33.12633 -117.28701 336 ft 0 kts 83°
2026-05-09 20:37 33.12634 -117.28694 334 ft 3 kts 83°
2026-05-09 20:37 33.12641 -117.28641 336 ft 9 kts 79°
2026-05-09 20:37 33.12657 -117.28545 335 ft 14 kts 79°
2026-05-09 20:37 33.12678 -117.28413 334 ft 18 kts 79°
2026-05-09 20:38 33.12696 -117.28302 335 ft 12 kts 79°
2026-05-09 20:38 33.12711 -117.28208 336 ft 13 kts 79°
2026-05-09 20:38 33.12723 -117.28134 337 ft 15 kts 79°
2026-05-09 20:38 33.12738 -117.28039 332 ft 7 kts 80°
2026-05-09 20:39 33.12748 -117.27971 335 ft 11 kts 78°
2026-05-09 20:39 33.12766 -117.27870 332 ft 14 kts 79°
2026-05-09 20:39 33.12778 -117.27794 335 ft 4 kts 79°
2026-05-09 20:39 33.12770 -117.27756 335 ft 5 kts 147°
2026-05-09 20:40 33.12728 -117.27744 334 ft 7 kts 169°
2026-05-09 20:40 33.12675 -117.27732 333 ft 4 kts 170°
2026-05-09 20:40 33.12651 -117.27719 333 ft 5 kts 122°
2026-05-09 20:40 33.12653 -117.27695 335 ft 2 kts 56°
2026-05-09 20:41 33.12659 -117.27686 332 ft 1 kts 54°
2026-05-09 20:41 33.12666 -117.27676 332 ft 0 kts 48°